Wind_Speed
12 12 13 13 14 14 15 15 15 15 16 15 16 16 17 17 16 17 17 17 18 19 18 17 17 17 17 17 17 16 16 15 15 15 15 15 15 15 14 14 15 14 14
12 12 13 13 14 14 14 15 15 15 16 16 17 17 17 17 17 17 17 17 18 18 18 18 18 18 17 17 17 17 16 16 16 15 15 15 15 15 14 14 14 14 14
12 12 13 13 13 14 14 15 16 16 16 16 16 17 17 17 17 17 17 17 17 17 17 17 18 18 17 17 17 16 16 16 15 15 15 14 14 14 14 14 14 14 14
12 13 13 13 14 14 14 15 15 16 16 16 17 17 17 17 17 17 17 17 17 18 17 17 17 17 17 17 17 17 17 16 16 16 16 15 15 15 16 16 15 15 15
12 12 13 13 13 14 14 15 15 16 16 17 17 17 17 17 17 16 16 17 17 18 18 17 17 17 17 18 18 17 18 18 18 18 18 17 17 16 17 17 16 16 16
12 12 12 13 13 14 14 14 15 16 16 16 17 17 17 17 17 17 17 18 18 18 18 18 18 18 18 18 18 18 18 19 18 18 18 18 18 18 18 18 17 17 16
13 13 13 13 13 14 14 15 16 16 16 16 16 16 16 17 17 17 17 18 18 18 18 18 18 19 19 19 19 18 18 18 18 18 18 18 19 19 19 18 17 17 17
13 13 13 13 13 14 14 15 15 16 16 16 16 16 16 16 17 17 17 17 18 17 17 18 18 19 19 19 19 19 19 19 18 18 18 18 18 18 18 18 18 17 17
12 12 12 13 13 13 14 15 16 16 16 16 16 16 16 16 16 17 17 18 18 18 18 17 18 18 19 20 20 19 19 20 19 19 19 18 18 18 18 18 18 17 17
12 12 13 13 13 14 14 15 15 16 16 16 16 16 16 17 17 17 17 17 18 18 18 19 18 18 18 19 20 20 20 20 20 20 20 20 19 18 18 18 18 18 18
13 13 13 13 14 14 14 14 15 15 15 15 15 16 17 17 18 18 18 18 18 18 18 19 19 19 19 19 19 20 20 20 20 20 21 21 20 20 19 19 19 19 19
14 14 14 14 15 15 15 15 15 15 15 15 16 16 16 17 17 17 17 17 18 18 19 19 19 19 19 19 19 20 20 20 20 20 20 20 20 20 20 20 20 21 21
15 16 15 15 16 16 16 15 15 15 15 16 16 17 17 17 17 17 17 17 17 17 18 19 19 19 19 19 19 20 20 20 20 20 20 20 20 21 21 22 22 22 23
16 16 16 17 17 17 17 16 16 16 17 17 17 18 18 18 18 18 17 17 17 17 18 18 20 20 20 21 20 20 20 20 21 22 22 22 22 22 23 23 23 23 23
17 17 17 17 18 18 17 17 17 18 18 18 18 18 18 17 18 18 18 18 18 18 19 20 20 20 21 21 21 21 21 21 22 23 24 24 24 24 24 24 24 24 24
18 18 19 19 19 19 19 18 18 18 19 18 18 18 18 18 18 18 18 19 19 19 20 20 21 22 21 21 21 21 21 21 22 23 24 25 25 25 25 25 25 25 25
19 19 19 19 19 19 19 19 19 19 19 19 19 18 19 19 19 19 19 20 20 20 21 21 21 21 22 22 22 22 22 21 22 23 24 25 26 26 26 26 26 27 26
21 20 20 20 19 19 19 20 20 20 20 20 20 19 19 19 19 19 20 20 20 20 20 21 21 21 22 22 23 23 23 22 23 23 23 24 25 26 27 28 28 28 28
22 21 21 20 20 21 21 22 21 21 21 20 20 20 20 20 19 19 20 20 21 21 21 21 22 22 23 23 23 24 24 24 24 25 25 25 26 26 28 28 28 28 28
23 22 22 22 21 22 22 21 21 21 21 21 21 21 21 20 21 21 20 21 21 21 21 22 23 23 24 24 25 25 25 26 26 26 27 27 28 28 28 27 28 28 28
25 25 24 24 23 23 23 22 22 22 22 23 22 22 22 22 22 22 22 22 22 22 23 23 24 24 25 25 26 27 27 27 28 28 28 29 29 29 29 28 28 29 29
26 25 25 25 25 24 24 23 23 23 23 23 23 24 24 24 24 24 24 24 24 24 25 25 26 26 26 26 27 28 28 28 29 29 29 29 29 29 29 28 28 28 29
26 26 25 25 25 25 25 24 25 24 24 24 25 25 25 26 25 25 26 26 26 26 27 27 27 27 27 28 29 29 29 30 30 30 30 29 30 29 29 28 28 28 28
27 26 25 25 25 25 26 26 26 26 26 26 26 26 26 26 26 26 26 27 27 28 28 28 28 28 29 29 30 30 31 31 32 31 31 30 30 30 29 29 29 29 28
28 27 27 26 26 26 27 27 27 27 27 27 27 27 27 27 27 27 28 28 28 29 29 30 30 31 31 31 31 31 32 33 32 31 32 31 31 30 30 29 29 29 29
29 28 28 28 28 28 28 28 29 29 28 28 28 28 28 28 28 28 28 29 29 29 30 31 31 32 32 32 33 33 34 34 33 32 32 32 31 31 30 30 30 30 30
Wind_Direction
279 280 281 281 280 279 279 279 279 278 276 276 276 275 274 273 273 272 271 269 265 264 264 264 263 263 263 263 263 263 262 260 262 263 264 264 262 263 262 264 264 264 262
280 280 280 282 282 280 280 280 280 280 278 277 276 274 273 273 274 274 272 272 269 266 263 262 262 263 263 262 262 262 260 258 257 260 264 263 262 262 261 262 260 260 262
281 280 280 280 281 282 282 281 279 280 280 280 277 275 273 273 272 271 270 270 269 267 264 264 263 265 263 261 261 259 258 257 256 261 263 261 260 258 258 259 259 260 262
281 280 281 282 282 283 283 284 282 282 281 279 278 276 274 274 272 270 269 267 266 266 264 263 264 264 262 260 261 259 258 259 260 261 259 257 259 257 258 258 259 260 262
283 283 285 286 284 284 285 286 286 286 284 281 279 277 275 273 271 271 268 267 267 268 266 263 262 261 260 259 259 259 259 261 260 260 258 258 258 257 257 257 259 260 262
285 285 285 285 286 287 288 287 287 287 285 282 279 276 275 273 271 271 269 268 268 267 265 263 262 261 259 258 258 258 258 259 258 257 258 259 258 256 256 257 258 260 263
286 287 286 284 286 287 288 288 288 288 286 282 279 276 274 273 272 271 270 269 268 267 265 263 261 260 260 259 258 257 258 260 258 257 257 258 257 256 256 257 258 260 262
286 287 288 287 288 289 290 290 289 288 285 281 278 276 274 273 272 271 271 271 269 266 265 262 261 259 258 258 258 257 258 258 256 255 256 257 257 256 256 256 257 258 260
287 289 292 293 292 292 293 292 290 289 286 282 278 277 275 273 272 272 272 271 269 266 266 262 260 259 258 256 255 256 257 257 256 255 256 257 258 257 256 255 255 256 258
289 291 294 297 297 297 296 295 293 292 289 283 280 279 276 274 272 271 270 269 267 266 265 263 262 261 260 260 258 259 259 258 256 258 258 258 258 257 256 256 257 256 257
288 292 293 295 298 300 300 298 295 293 291 286 283 283 280 276 273 272 271 268 266 265 263 263 264 264 264 262 259 258 259 258 258 257 256 257 258 257 256 258 258 257 258
285 289 292 295 297 297 299 299 297 293 291 288 286 285 281 278 274 274 270 267 267 265 264 264 264 266 266 265 262 260 260 259 257 257 256 257 257 257 258 259 259 258 259
282 283 288 292 295 296 297 298 297 296 294 290 287 286 281 279 275 274 273 271 269 265 264 265 266 266 267 266 264 262 261 260 258 258 259 259 259 259 259 260 261 261 260
281 282 284 287 291 292 293 294 296 296 295 293 289 286 282 279 277 275 273 272 270 266 265 265 266 266 266 265 265 263 262 262 260 260 261 261 261 262 262 262 261 261 261
280 282 283 286 288 289 290 291 292 293 293 293 291 288 283 279 278 277 273 271 271 271 269 267 267 267 267 267 266 266 266 265 263 263 263 263 262 261 262 263 262 261 261
281 282 282 284 286 288 289 289 291 294 293 293 290 287 283 282 280 279 276 274 272 271 271 271 270 269 269 268 267 267 268 267 266 264 263 262 261 261 261 263 263 263 262
279 281 282 283 285 287 288 288 290 292 293 292 290 287 285 284 281 279 277 275 274 273 271 271 271 269 267 267 266 266 267 268 268 267 266 263 262 261 261 261 263 263 262
277 280 281 282 284 286 288 289 290 291 291 291 289 287 284 283 282 280 279 277 275 273 271 270 270 270 270 269 268 267 267 267 269 270 269 266 264 262 262 263 262 261 260
276 278 280 281 283 285 287 288 287 288 289 289 288 287 284 282 280 279 278 277 275 272 271 271 271 271 271 271 269 268 268 269 270 271 271 269 268 267 266 265 262 261 261
274 276 277 280 282 284 286 287 287 288 288 288 287 286 284 281 280 277 277 276 275 273 272 272 273 273 273 272 271 270 269 270 272 272 271 270 270 269 268 267 264 262 262
273 274 275 278 279 281 283 284 286 287 287 287 287 286 284 281 281 278 277 275 275 274 274 275 275 274 273 273 273 271 269 271 272 272 272 272 272 270 269 268 265 263 261
271 273 274 275 276 278 280 282 284 285 285 286 286 285 283 281 280 278 277 275 274 274 275 276 275 274 273 273 273 273 271 271 272 272 272 272 272 270 269 267 266 264 261
271 274 276 275 276 277 279 281 282 282 283 283 283 283 283 281 280 279 278 277 276 276 276 276 275 274 274 273 273 273 273 273 273 273 272 271 271 269 268 267 268 265 261
270 272 274 275 277 278 279 280 280 281 281 281 281 281 281 280 280 280 280 279 278 277 277 276 276 275 275 274 274 274 274 274 273 272 271 270 269 269 268 267 267 266 262
269 271 272 274 276 278 278 279 279 279 279 280 280 279 279 279 280 280 280 280 278 277 277 277 277 276 276 275 275 275 275 275 273 271 271 269 268 267 266 265 264 264 262
268 270 272 273 274 276 277 278 278 278 278 280 279 278 278 279 280 281 281 281 280 279 279 278 278 277 276 276 276 276 277 275 273 270 270 269 268 266 264 263 263 263 261
Height
5851 5851 5851 5850 5850 5850 5849 5849 5849 5848 5848 5848 5848 5848 5847 5847 5847 5846 5846 5846 5846 5846 5846 5846 5846 5845 5845 5846 5846 5846 5846 5846 5847 5847 5848 5848 5848 5849 5849 5849 5849 5850 5850
5848 5847 5847 5847 5846 5846 5845 5845 5845 5844 5844 5844 5844 5843 5843 5843 5842 5842 5842 5842 5841 5842 5841 5841 5841 5841 5841 5841 5842 5842 5842 5842 5843 5844 5844 5845 5845 5845 5846 5846 5846 5847 5847
5844 5844 5843 5843 5842 5842 5841 5841 5841 5840 5840 5840 5839 5839 5839 5838 5838 5838 5838 5837 5837 5837 5837 5837 5837 5837 5836 5837 5837 5838 5838 5839 5840 5841 5841 5841 5842 5842 5843 5843 5843 5844 5844
5841 5840 5840 5839 5839 5838 5837 5837 5836 5836 5836 5835 5835 5835 5834 5834 5834 5834 5833 5833 5833 5833 5833 5833 5833 5832 5832 5832 5833 5834 5835 5836 5836 5837 5837 5838 5839 5839 5839 5840 5840 5841 5841
5837 5837 5836 5836 5835 5834 5834 5833 5832 5831 5831 5830 5830 5830 5830 5829 5829 5829 5829 5829 5828 5828 5828 5828 5829 5829 5829 5829 5830 5830 5831 5831 5832 5833 5833 5834 5835 5835 5836 5836 5837 5837 5837
5834 5833 5833 5832 5831 5830 5830 5829 5828 5827 5827 5826 5825 5825 5825 5825 5824 5824 5824 5824 5824 5824 5824 5824 5824 5824 5825 5825 5826 5826 5827 5827 5828 5829 5829 5830 5831 5831 5831 5832 5832 5833 5833
5830 5830 5829 5828 5827 5826 5825 5825 5824 5823 5822 5821 5821 5820 5820 5820 5820 5819 5819 5819 5819 5819 5819 5819 5819 5820 5820 5821 5822 5822 5822 5823 5824 5824 5825 5826 5826 5827 5827 5827 5828 5829 5829
5827 5826 5825 5824 5823 5822 5821 5820 5819 5818 5817 5817 5817 5816 5816 5816 5815 5815 5815 5815 5814 5814 5814 5814 5814 5815 5816 5816 5817 5817 5818 5819 5819 5820 5820 5821 5821 5822 5822 5823 5824 5825 5825
5823 5822 5821 5820 5819 5818 5817 5816 5815 5814 5813 5812 5812 5812 5811 5811 5810 5810 5810 5810 5810 5810 5810 5809 5810 5810 5810 5811 5812 5813 5813 5813 5814 5815 5816 5816 5817 5817 5818 5819 5819 5820 5821
5820 5819 5818 5816 5815 5814 5813 5811 5810 5809 5808 5807 5807 5807 5806 5806 5806 5806 5805 5805 5804 5804 5805 5805 5805 5805 5805 5806 5807 5807 5808 5809 5810 5810 5811 5811 5812 5813 5813 5814 5815 5816 5816
5816 5815 5814 5813 5812 5810 5809 5807 5806 5805 5804 5803 5802 5802 5801 5801 5800 5801 5801 5800 5800 5800 5800 5800 5800 5800 5801 5801 5801 5802 5803 5803 5804 5805 5805 5806 5807 5808 5808 5809 5810 5811 5811
5813 5811 5810 5809 5808 5806 5805 5804 5802 5801 5800 5799 5798 5797 5797 5796 5796 5795 5795 5795 5795 5795 5795 5795 5795 5796 5796 5796 5796 5797 5798 5798 5799 5800 5800 5801 5801 5802 5803 5804 5805 5805 5806
5809 5808 5806 5805 5804 5802 5801 5800 5798 5797 5796 5795 5794 5793 5792 5791 5791 5791 5790 5790 5790 5790 5790 5790 5790 5790 5791 5791 5791 5792 5792 5793 5793 5794 5795 5795 5796 5797 5797 5798 5799 5799 5800
5804 5803 5802 5801 5800 5798 5797 5795 5794 5793 5792 5790 5789 5788 5787 5786 5786 5786 5785 5785 5785 5785 5785 5785 5785 5785 5785 5785 5785 5786 5786 5787 5787 5788 5789 5789 5790 5790 5791 5792 5792 5793 5794
5800 5799 5798 5796 5795 5794 5793 5791 5790 5789 5787 5786 5785 5783 5782 5781 5781 5780 5780 5780 5780 5780 5780 5780 5779 5779 5779 5779 5779 5780 5780 5781 5781 5781 5782 5783 5783 5784 5784 5785 5786 5786 5787
5795 5794 5793 5792 5790 5789 5788 5787 5785 5784 5783 5781 5780 5778 5777 5776 5776 5775 5775 5775 5774 5775 5774 5773 5773 5773 5773 5773 5774 5774 5774 5774 5774 5774 5775 5775 5776 5777 5778 5778 5779 5779 5780
5790 5789 5788 5786 5785 5784 5783 5782 5780 5779 5778 5776 5775 5773 5772 5771 5770 5770 5769 5769 5768 5768 5768 5768 5767 5767 5767 5768 5768 5768 5768 5768 5768 5767 5768 5768 5768 5769 5770 5770 5771 5772 5772
5785 5784 5782 5781 5780 5779 5777 5776 5775 5774 5772 5771 5769 5768 5767 5766 5765 5764 5764 5763 5762 5762 5762 5762 5761 5761 5761 5761 5761 5761 5761 5761 5761 5761 5761 5761 5761 5761 5762 5762 5763 5763 5764
5778 5778 5776 5775 5774 5773 5772 5770 5769 5768 5767 5765 5764 5762 5761 5760 5759 5758 5758 5757 5756 5756 5755 5755 5755 5755 5755 5755 5755 5755 5755 5755 5754 5754 5754 5753 5753 5753 5753 5754 5754 5755 5755
5772 5771 5770 5769 5768 5767 5766 5764 5763 5762 5761 5759 5758 5756 5755 5754 5753 5752 5752 5751 5750 5750 5749 5749 5749 5748 5748 5748 5748 5748 5748 5747 5747 5747 5746 5746 5745 5745 5745 5744 5745 5745 5746
5765 5764 5763 5763 5762 5760 5759 5758 5757 5755 5754 5753 5751 5750 5749 5747 5747 5746 5745 5744 5744 5743 5743 5742 5742 5742 5741 5741 5740 5740 5740 5739 5739 5738 5738 5737 5736 5736 5735 5735 5736 5736 5737
5758 5757 5756 5755 5754 5753 5752 5751 5749 5748 5747 5746 5745 5743 5742 5741 5740 5739 5738 5737 5737 5736 5736 5735 5735 5734 5733 5733 5732 5732 5732 5731 5731 5730 5729 5729 5727 5727 5727 5727 5727 5727 5728
5750 5749 5748 5747 5747 5746 5745 5743 5742 5741 5740 5739 5737 5736 5735 5733 5732 5731 5730 5730 5729 5728 5728 5727 5727 5726 5725 5725 5724 5724 5723 5722 5722 5721 5720 5719 5718 5718 5718 5718 5718 5719 5719
5741 5741 5740 5739 5738 5738 5736 5735 5734 5733 5732 5730 5729 5728 5727 5725 5724 5724 5723 5722 5721 5720 5720 5719 5718 5717 5716 5716 5715 5715 5714 5713 5712 5711 5710 5710 5709 5709 5709 5709 5709 5710 5710
5732 5732 5731 5731 5730 5729 5728 5726 5725 5724 5723 5722 5721 5719 5718 5717 5716 5715 5715 5714 5713 5711 5710 5709 5709 5708 5707 5706 5705 5704 5704 5703 5702 5701 5700 5700 5700 5700 5700 5700 5700 5700 5701
5723 5723 5722 5722 5721 5720 5719 5717 5716 5715 5714 5713 5712 5711 5709 5708 5707 5706 5705 5705 5704 5702 5701 5700 5699 5698 5697 5696 5695 5694 5693 5692 5691 5691 5690 5690 5690 5691 5691 5692 5692 5692 5693